M I D A S
Marine Information and Data Acquisition System
Tripno 1498 of the Zeeleeuw from 2008-06-03 06:19:20 to 2008-06-03 13:06:08
Back to CruiseResearch ActivitiesStationsMapUnderway DataData graphs

EquipmentUnitsComments
TimeDGPSUTC
LatitudeDGPSDM.mWGS84
LongitudeDGPSDM.mWGS84
SpeedMeteo Stationm/sRelative wind speed
DirectionMeteo StationdegRelative wind direction
TemperatureMeteo Stationdeg CelciusAir temperature
PressureMeteo StationPaAtmospheric pressure
HumidityMeteo Station%Relative humidity
Missing or incorrect values are displayed as -999
Metereological data collected by the RV Zeeleeuw from 2008-06-03 06:22:14 to 2008-06-03 13:07:22
Time Latitude Longitude Speed Direction Temperature Pressure Humidity
2008-06-03 06:23 51°13.643 2°55.978 -999 -999 -999 -999 -999
2008-06-03 06:24 51°13.656 2°55.925 -999 -999 -999 -999 -999
2008-06-03 06:25 51°13.68 2°55.836 -999 -999 -999 -999 -999
2008-06-03 06:26 51°13.696 2°55.765 -999 -999 -999 -999 -999
2008-06-03 06:27 51°13.705 2°55.753 -999 -999 -999 -999 -999
2008-06-03 06:28 51°13.72 2°55.733 -999 -999 -999 -999 -999
2008-06-03 06:29 51°13.818 2°55.643 -999 -999 -999 -999 -999
2008-06-03 06:30 51°13.945 2°55.549 -999 -999 -999 -999 -999
2008-06-03 06:31 51°14.07 2°55.455 -999 -999 -999 -999 -999
2008-06-03 06:32 51°14.181 2°55.356 -999 -999 -999 -999 -999
2008-06-03 06:33 51°14.294 2°55.198 -999 -999 -999 -999 -999
2008-06-03 06:34 51°14.399 2°54.993 -999 -999 -999 -999 -999
2008-06-03 06:35 51°14.542 2°54.76 -999 -999 -999 -999 -999
2008-06-03 06:36 51°14.71 2°54.572 -999 -999 -999 -999 -999
2008-06-03 06:37 51°14.876 2°54.387 -999 -999 -999 -999 -999
2008-06-03 06:38 51°15.035 2°54.199 -999 -999 -999 -999 -999
2008-06-03 06:39 51°15.19 2°54.001 -999 -999 -999 -999 -999
2008-06-03 06:40 51°15.356 2°53.833 -999 -999 -999 -999 -999
2008-06-03 06:41 51°15.521 2°53.67 -999 -999 -999 -999 -999
2008-06-03 06:42 51°15.693 2°53.505 -999 -999 -999 -999 -999
2008-06-03 06:43 51°15.866 2°53.354 -999 -999 -999 -999 -999
2008-06-03 06:44 51°16.042 2°53.212 -999 -999 -999 -999 -999
2008-06-03 06:45 51°16.219 2°53.078 -999 -999 -999 -999 -999
2008-06-03 06:46 51°16.397 2°52.946 -999 -999 -999 -999 -999
2008-06-03 06:47 51°16.579 2°52.833 -999 -999 -999 -999 -999
2008-06-03 06:48 51°16.759 2°52.726 -999 -999 -999 -999 -999
2008-06-03 06:49 51°16.931 2°52.601 -999 -999 -999 -999 -999
2008-06-03 06:50 51°17.102 2°52.479 -999 -999 -999 -999 -999
2008-06-03 06:51 51°17.28 2°52.394 -999 -999 -999 -999 -999
2008-06-03 06:52 51°17.462 2°52.371 -999 -999 -999 -999 -999
2008-06-03 06:53 51°17.644 2°52.354 -999 -999 -999 -999 -999
2008-06-03 06:54 51°17.824 2°52.356 -999 -999 -999 -999 -999
2008-06-03 06:55 51°17.989 2°52.457 -999 -999 -999 -999 -999
2008-06-03 06:56 51°18.129 2°52.634 -999 -999 -999 -999 -999
2008-06-03 06:57 51°18.238 2°52.854 -999 -999 -999 -999 -999
2008-06-03 06:58 51°18.334 2°53.101 -999 -999 -999 -999 -999
2008-06-03 06:59 51°18.43 2°53.342 -999 -999 -999 -999 -999
2008-06-03 07:00 51°18.521 2°53.592 -999 -999 -999 -999 -999
2008-06-03 07:01 51°18.611 2°53.84 -999 -999 -999 -999 -999
2008-06-03 07:02 51°18.694 2°54.095 -999 -999 -999 -999 -999
2008-06-03 07:03 51°18.777 2°54.352 -999 -999 -999 -999 -999
2008-06-03 07:04 51°18.861 2°54.608 -999 -999 -999 -999 -999
2008-06-03 07:05 51°18.946 2°54.865 -999 -999 -999 -999 -999
2008-06-03 07:06 51°19.035 2°55.118 -999 -999 -999 -999 -999
2008-06-03 07:07 51°19.123 2°55.376 -999 -999 -999 -999 -999
2008-06-03 07:08 51°19.209 2°55.636 -999 -999 -999 -999 -999
2008-06-03 07:09 51°19.295 2°55.895 -999 -999 -999 -999 -999
2008-06-03 07:10 51°19.377 2°56.156 -999 -999 -999 -999 -999
2008-06-03 07:11 51°19.443 2°56.43 -999 -999 -999 -999 -999
2008-06-03 07:12 51°19.5 2°56.71 -999 -999 -999 -999 -999
2008-06-03 07:13 51°19.569 2°56.975 -999 -999 -999 -999 -999
2008-06-03 07:14 51°19.634 2°57.252 -999 -999 -999 -999 -999
2008-06-03 07:15 51°19.686 2°57.535 -999 -999 -999 -999 -999
2008-06-03 07:16 51°19.742 2°57.815 -999 -999 -999 -999 -999
2008-06-03 07:17 51°19.8 2°58.092 -999 -999 -999 -999 -999
2008-06-03 07:18 51°19.855 2°58.367 -999 -999 -999 -999 -999
2008-06-03 07:19 51°19.91 2°58.64 -999 -999 -999 -999 -999
2008-06-03 07:20 51°19.955 2°58.919 -999 -999 -999 -999 -999
2008-06-03 07:21 51°20.005 2°59.196 -999 -999 -999 -999 -999
2008-06-03 07:22 51°20.063 2°59.47 -999 -999 -999 -999 -999
2008-06-03 07:23 51°20.131 2°59.737 -999 -999 -999 -999 -999
2008-06-03 07:24 51°20.204 2°59.999 -999 -999 -999 -999 -999
2008-06-03 07:25 51°20.268 3°0.264 -999 -999 -999 -999 -999
2008-06-03 07:26 51°20.329 3°0.533 -999 -999 -999 -999 -999
2008-06-03 07:27 51°20.386 3°0.801 -999 -999 -999 -999 -999
2008-06-03 07:28 51°20.443 3°1.071 -999 -999 -999 -999 -999
2008-06-03 07:29 51°20.493 3°1.346 -999 -999 -999 -999 -999
2008-06-03 07:30 51°20.54 3°1.627 -999 -999 -999 -999 -999
2008-06-03 07:31 51°20.593 3°1.904 -999 -999 -999 -999 -999
2008-06-03 07:32 51°20.654 3°2.173 -999 -999 -999 -999 -999
2008-06-03 07:33 51°20.717 3°2.443 -999 -999 -999 -999 -999
2008-06-03 07:34 51°20.786 3°2.71 -999 -999 -999 -999 -999
2008-06-03 07:35 51°20.858 3°2.975 -999 -999 -999 -999 -999
2008-06-03 07:36 51°20.927 3°3.238 -999 -999 -999 -999 -999
2008-06-03 07:37 51°20.995 3°3.501 -999 -999 -999 -999 -999
2008-06-03 07:38 51°21.061 3°3.766 -999 -999 -999 -999 -999
2008-06-03 07:39 51°21.13 3°4.027 -999 -999 -999 -999 -999
2008-06-03 07:40 51°21.196 3°4.289 -999 -999 -999 -999 -999
2008-06-03 07:41 51°21.262 3°4.556 -999 -999 -999 -999 -999
2008-06-03 07:42 51°21.334 3°4.818 -999 -999 -999 -999 -999
2008-06-03 07:43 51°21.408 3°5.082 -999 -999 -999 -999 -999
2008-06-03 07:44 51°21.472 3°5.355 -999 -999 -999 -999 -999
2008-06-03 07:45 51°21.538 3°5.631 -999 -999 -999 -999 -999
2008-06-03 07:46 51°21.609 3°5.9 -999 -999 -999 -999 -999
2008-06-03 07:47 51°21.68 3°6.166 -999 -999 -999 -999 -999
2008-06-03 07:48 51°21.753 3°6.432 -999 -999 -999 -999 -999
2008-06-03 07:49 51°21.824 3°6.701 -999 -999 -999 -999 -999
2008-06-03 07:50 51°21.879 3°6.98 -999 -999 -999 -999 -999
2008-06-03 07:51 51°21.917 3°7.267 -999 -999 -999 -999 -999
2008-06-03 07:52 51°21.95 3°7.559 -999 -999 -999 -999 -999
2008-06-03 07:53 51°21.972 3°7.853 -999 -999 -999 -999 -999
2008-06-03 07:54 51°21.992 3°8.146 -999 -999 -999 -999 -999
2008-06-03 07:55 51°22.004 3°8.402 -999 -999 -999 -999 -999
2008-06-03 07:56 51°22.013 3°8.651 -999 -999 -999 -999 -999
2008-06-03 07:57 51°22.022 3°8.925 -999 -999 -999 -999 -999
2008-06-03 07:58 51°22.032 3°9.225 -999 -999 -999 -999 -999
2008-06-03 07:59 51°22.069 3°9.521 -999 -999 -999 -999 -999
2008-06-03 08:00 51°22.108 3°9.818 -999 -999 -999 -999 -999
2008-06-03 08:01 51°22.145 3°10.119 -999 -999 -999 -999 -999
2008-06-03 08:02 51°22.184 3°10.422 -999 -999 -999 -999 -999
2008-06-03 08:03 51°22.216 3°10.734 -999 -999 -999 -999 -999
2008-06-03 08:04 51°22.258 3°11.049 -999 -999 -999 -999 -999
2008-06-03 08:05 51°22.309 3°11.359 -999 -999 -999 -999 -999
2008-06-03 08:06 51°22.368 3°11.663 -999 -999 -999 -999 -999
2008-06-03 08:07 51°22.407 3°11.976 -999 -999 -999 -999 -999
2008-06-03 08:08 51°22.462 3°12.28 -999 -999 -999 -999 -999
2008-06-03 08:09 51°22.512 3°12.581 -999 -999 -999 -999 -999
2008-06-03 08:10 51°22.557 3°12.881 -999 -999 -999 -999 -999
2008-06-03 08:11 51°22.599 3°13.103 -999 -999 -999 -999 -999
2008-06-03 08:12 51°22.636 3°13.189 -999 -999 -999 -999 -999
2008-06-03 08:13 51°22.647 3°13.197 -999 -999 -999 -999 -999
2008-06-03 08:14 51°22.653 3°13.192 -999 -999 -999 -999 -999
2008-06-03 08:15 51°22.659 3°13.183 -999 -999 -999 -999 -999
2008-06-03 08:16 51°22.656 3°13.176 -999 -999 -999 -999 -999
2008-06-03 08:17 51°22.638 3°13.169 -999 -999 -999 -999 -999
2008-06-03 08:18 51°22.625 3°13.159 -999 -999 -999 -999 -999
2008-06-03 08:19 51°22.616 3°13.157 -999 -999 -999 -999 -999
2008-06-03 08:20 51°22.61 3°13.151 -999 -999 -999 -999 -999
2008-06-03 08:21 51°22.608 3°13.142 -999 -999 -999 -999 -999
2008-06-03 08:22 51°22.609 3°13.139 -999 -999 -999 -999 -999
2008-06-03 08:23 51°22.612 3°13.136 -999 -999 -999 -999 -999
2008-06-03 08:24 51°22.616 3°13.134 -999 -999 -999 -999 -999
2008-06-03 08:25 51°22.623 3°13.132 -999 -999 -999 -999 -999
2008-06-03 08:26 51°22.628 3°13.129 -999 -999 -999 -999 -999
2008-06-03 08:27 51°22.633 3°13.131 -999 -999 -999 -999 -999
2008-06-03 08:28 51°22.642 3°13.124 -999 -999 -999 -999 -999
2008-06-03 08:29 51°22.649 3°13.115 -999 -999 -999 -999 -999
2008-06-03 08:30 51°22.656 3°13.103 -999 -999 -999 -999 -999
2008-06-03 08:31 51°22.675 3°13.094 -999 -999 -999 -999 -999
2008-06-03 08:32 51°22.703 3°13.162 -999 -999 -999 -999 -999
2008-06-03 08:33 51°22.679 3°13.284 -999 -999 -999 -999 -999
2008-06-03 08:34 51°22.626 3°13.328 -999 -999 -999 -999 -999
2008-06-03 08:35 51°22.612 3°13.326 3.6 341 16.3 100990 100
2008-06-03 08:36 51°22.608 3°13.321 4.1 344 16.3 100990 100
2008-06-03 08:37 51°22.605 3°13.317 4.5 348 16.3 100990 100
2008-06-03 08:38 51°22.6 3°13.314 3 3 16.3 100990 100
2008-06-03 08:39 51°22.595 3°13.314 3.7 6 16.4 100990 100
2008-06-03 08:40 51°22.588 3°13.32 3.7 5 16.4 100990 100
2008-06-03 08:41 51°22.551 3°13.323 4.5 332 16.4 100990 100
2008-06-03 08:42 51°22.52 3°13.253 5.3 233 16.4 100990 100
2008-06-03 08:43 51°22.542 3°13.173 3.8 247 16.5 101000 100
2008-06-03 08:44 51°22.56 3°13.142 3.8 267 16.5 101000 100
2008-06-03 08:45 51°22.565 3°13.134 4.8 39 16.5 101000 100
2008-06-03 08:46 51°22.57 3°13.129 4.6 270 16.6 101000 100
2008-06-03 08:47 51°22.574 3°13.125 3.7 269 16.6 101000 100
2008-06-03 08:48 51°22.577 3°13.121 2.6 264 16.6 101000 100
2008-06-03 08:49 51°22.579 3°13.119 3.8 260 16.6 101000 100
2008-06-03 08:50 51°22.581 3°13.117 4.1 261 16.6 101000 100
2008-06-03 08:51 51°22.586 3°13.116 4.2 259 16.6 101000 100
2008-06-03 08:52 51°22.601 3°13.052 6.6 318 16.6 100990 100
2008-06-03 08:53 51°22.573 3°12.854 9.7 324 16.6 100990 100
2008-06-03 08:54 51°22.538 3°12.557 10.4 325 16.6 100990 100
2008-06-03 08:55 51°22.503 3°12.248 11.4 326 16.6 100980 100
2008-06-03 08:56 51°22.47 3°11.949 9.5 325 16.6 100990 100
2008-06-03 08:57 51°22.459 3°11.686 7.9 323 16.6 100990 100
2008-06-03 08:58 51°22.458 3°11.514 7 324 16.6 100990 100
2008-06-03 08:59 51°22.475 3°11.38 5.9 34 16.6 100990 100
2008-06-03 09:00 51°22.502 3°11.314 5.4 256 16.5 100990 100
2008-06-03 09:01 51°22.503 3°11.312 5 270 16.5 101000 100
2008-06-03 09:02 51°22.506 3°11.313 4.9 40 16.5 101000 100
2008-06-03 09:03 51°22.509 3°11.316 4.5 41 16.5 101000 100
2008-06-03 09:04 51°22.514 3°11.322 4.4 34 16.5 101000 100
2008-06-03 09:05 51°22.549 3°11.297 6.7 40 16.5 101000 100
2008-06-03 09:06 51°22.531 3°11.181 9 332 16.5 100990 100
2008-06-03 09:07 51°22.431 3°10.958 11.4 331 16.5 100990 100
2008-06-03 09:08 51°22.316 3°10.693 10.2 331 16.5 100990 100
2008-06-03 09:09 51°22.194 3°10.436 10.2 331 16.5 100990 100
2008-06-03 09:10 51°22.085 3°10.165 11.3 330 16.5 100990 100
2008-06-03 09:11 51°21.978 3°9.893 10.2 329 16.5 100990 100
2008-06-03 09:12 51°21.869 3°9.623 10.1 330 16.5 100990 100
2008-06-03 09:13 51°21.761 3°9.351 11.5 329 16.5 100980 100
2008-06-03 09:14 51°21.654 3°9.078 13.2 331 16.5 100980 100
2008-06-03 09:15 51°21.537 3°8.813 13.2 332 16.6 100970 100
2008-06-03 09:16 51°21.421 3°8.549 11.7 333 16.6 100970 100
2008-06-03 09:17 51°21.305 3°8.285 10.8 332 16.5 100980 100
2008-06-03 09:18 51°21.187 3°8.021 13 333 16.5 100980 100
2008-06-03 09:19 51°21.07 3°7.759 11.8 332 16.4 100980 100
2008-06-03 09:20 51°20.951 3°7.497 10.3 333 16.4 100980 100
2008-06-03 09:21 51°20.818 3°7.251 12.8 335 16.4 100980 100
2008-06-03 09:22 51°20.687 3°7.005 12 333 16.4 100980 100
2008-06-03 09:23 51°20.554 3°6.759 11.6 334 16.3 100990 100
2008-06-03 09:24 51°20.422 3°6.513 10.2 334 16.4 100980 100
2008-06-03 09:25 51°20.284 3°6.273 9.9 332 16.3 100990 100
2008-06-03 09:26 51°20.161 3°6.027 10.2 331 16.4 100980 100
2008-06-03 09:27 51°20.052 3°5.758 9.5 331 16.4 100980 100
2008-06-03 09:28 51°19.945 3°5.49 11.5 335 16.4 100980 100
2008-06-03 09:29 51°19.84 3°5.22 11.6 335 16.4 100980 100
2008-06-03 09:30 51°19.736 3°4.95 11.4 333 16.4 100990 100
2008-06-03 09:31 51°19.634 3°4.678 10.3 334 16.4 100980 100
2008-06-03 09:32 51°19.528 3°4.405 11.3 332 16.3 100980 100
2008-06-03 09:33 51°19.427 3°4.139 10.1 334 16.4 100980 100
2008-06-03 09:34 51°19.324 3°3.87 12.1 334 16.4 100980 100
2008-06-03 09:35 51°19.221 3°3.6 10.7 335 16.4 100980 100
2008-06-03 09:36 51°19.119 3°3.333 11.1 335 16.4 100980 100
2008-06-03 09:37 51°19.019 3°3.065 11 336 16.4 100980 100
2008-06-03 09:38 51°18.918 3°2.798 11.2 336 16.3 100980 100
2008-06-03 09:39 51°18.817 3°2.532 10.8 334 16.4 100990 100
2008-06-03 09:40 51°18.716 3°2.265 11.1 334 16.3 100990 100
2008-06-03 09:41 51°18.617 3°1.997 12.1 334 16.3 100980 100
2008-06-03 09:42 51°18.525 3°1.721 10.5 333 16.4 100980 100
2008-06-03 09:43 51°18.428 3°1.443 11.3 335 16.4 100990 100
2008-06-03 09:44 51°18.331 3°1.177 12 334 16.4 100990 100
2008-06-03 09:45 51°18.232 3°0.908 12.1 337 16.4 100980 100
2008-06-03 09:46 51°18.131 3°0.641 10.5 336 16.4 100990 100
2008-06-03 09:47 51°18.029 3°0.377 10.9 340 16.3 100990 100
2008-06-03 09:48 51°17.925 3°0.111 11.6 339 16.3 100990 100
2008-06-03 09:49 51°17.825 2°59.855 11.3 337 16.2 100990 100
2008-06-03 09:50 51°17.723 2°59.594 11.3 339 16.1 100990 100
2008-06-03 09:51 51°17.622 2°59.334 10.3 339 16.1 100990 100
2008-06-03 09:52 51°17.521 2°59.077 10.8 340 16.1 100990 100
2008-06-03 09:53 51°17.421 2°58.825 11.2 341 16.1 101000 100
2008-06-03 09:54 51°17.331 2°58.558 10.1 340 16 100990 100
2008-06-03 09:55 51°17.259 2°58.291 9.2 339 15.9 101000 100
2008-06-03 09:56 51°17.186 2°58.022 10.4 340 15.9 101000 100
2008-06-03 09:57 51°17.112 2°57.75 9.6 339 15.8 101000 100
2008-06-03 09:58 51°17.056 2°57.483 10.2 336 15.8 101000 100
2008-06-03 09:59 51°17.029 2°57.189 11.5 338 15.8 101000 100
2008-06-03 10:00 51°16.96 2°56.927 10.3 345 15.8 101000 100
2008-06-03 10:01 51°16.866 2°56.678 10.3 341 15.7 101000 100
2008-06-03 10:02 51°16.79 2°56.415 11.8 340 15.6 101000 100
2008-06-03 10:03 51°16.73 2°56.142 10.9 339 15.6 101000 100
2008-06-03 10:04 51°16.666 2°55.868 11.3 343 15.6 101000 100
2008-06-03 10:05 51°16.597 2°55.608 10.4 340 15.6 101010 100
2008-06-03 10:06 51°16.522 2°55.349 10.1 342 15.5 101000 100
2008-06-03 10:07 51°16.445 2°55.095 10.8 341 15.5 101010 100
2008-06-03 10:08 51°16.371 2°54.835 10.4 342 15.4 101010 100
2008-06-03 10:09 51°16.312 2°54.578 9 342 15.4 101010 100
2008-06-03 10:10 51°16.293 2°54.452 6.9 345 15.4 101020 100
2008-06-03 10:11 51°16.289 2°54.404 5 359 15.3 101020 100
2008-06-03 10:12 51°16.269 2°54.382 6 357 15.3 101020 100
2008-06-03 10:13 51°16.26 2°54.329 5.7 351 15.3 101020 100
2008-06-03 10:14 51°16.249 2°54.294 5.4 349 15.3 101020 100
2008-06-03 10:15 51°16.258 2°54.297 4.2 338 15.2 101030 100
2008-06-03 10:16 51°16.273 2°54.314 5.1 336 15.3 101030 100
2008-06-03 10:17 51°16.288 2°54.339 4.5 336 15.3 101020 100
2008-06-03 10:18 51°16.305 2°54.371 3.7 332 15.3 101020 100
2008-06-03 10:19 51°16.322 2°54.409 5 329 15.4 101020 100
2008-06-03 10:20 51°16.339 2°54.453 4.3 323 15.4 101020 100
2008-06-03 10:21 51°16.356 2°54.501 4.6 315 15.4 101020 100
2008-06-03 10:22 51°16.371 2°54.551 4.7 234 15.5 101020 100
2008-06-03 10:23 51°16.387 2°54.604 4.6 244 15.5 101030 100
2008-06-03 10:24 51°16.402 2°54.658 6.6 252 15.6 101020 100
2008-06-03 10:25 51°16.417 2°54.712 6 257 15.7 101030 100
2008-06-03 10:26 51°16.452 2°54.763 7 37 15.7 101030 100
2008-06-03 10:27 51°16.483 2°54.715 7.5 350 15.7 101020 100
2008-06-03 10:28 51°16.455 2°54.683 7.3 355 15.6 101020 100
2008-06-03 10:29 51°16.423 2°54.642 7.9 349 15.5 101020 100
2008-06-03 10:30 51°16.399 2°54.585 7.2 352 15.4 101020 100
2008-06-03 10:31 51°16.35 2°54.476 8.6 347 15.4 101020 100
2008-06-03 10:32 51°16.296 2°54.383 9.2 350 15.4 101020 100
2008-06-03 10:33 51°16.257 2°54.323 8.1 349 15.4 101020 100
2008-06-03 10:34 51°16.253 2°54.309 6.3 344 15.3 101020 100
2008-06-03 10:35 51°16.26 2°54.32 6.8 351 15.3 101020 100
2008-06-03 10:36 51°16.261 2°54.34 7.4 358 15.3 101020 100
2008-06-03 10:37 51°16.257 2°54.355 8 357 15.3 101020 100
2008-06-03 10:38 51°16.255 2°54.358 8.8 351 15.3 101020 100
2008-06-03 10:39 51°16.26 2°54.356 7.4 342 15.3 101020 100
2008-06-03 10:40 51°16.267 2°54.348 7.9 342 15.3 101020 100
2008-06-03 10:41 51°16.275 2°54.341 8.2 341 15.4 101020 100
2008-06-03 10:42 51°16.28 2°54.334 7.6 350 15.4 101030 100
2008-06-03 10:43 51°16.278 2°54.331 8.9 350 15.4 101020 100
2008-06-03 10:44 51°16.275 2°54.333 7.1 350 15.3 101020 100
2008-06-03 10:45 51°16.272 2°54.334 9.4 348 15.3 101030 100
2008-06-03 10:46 51°16.273 2°54.337 9.6 347 15.3 101020 100
2008-06-03 10:47 51°16.274 2°54.341 8.3 345 15.3 101030 100
2008-06-03 10:48 51°16.275 2°54.346 7.6 345 15.3 101030 100
2008-06-03 10:49 51°16.275 2°54.347 9.6 343 15.3 101040 100
2008-06-03 10:50 51°16.272 2°54.339 8.3 343 15.3 101040 100
2008-06-03 10:51 51°16.267 2°54.332 9 348 15.3 101040 100
2008-06-03 10:52 51°16.266 2°54.339 8.6 346 15.3 101050 100
2008-06-03 10:53 51°16.269 2°54.354 8.6 347 15.3 101050 100
2008-06-03 10:54 51°16.27 2°54.369 8.7 346 15.2 101050 100
2008-06-03 10:55 51°16.273 2°54.391 7.5 348 15.1 101050 100
2008-06-03 10:56 51°16.28 2°54.429 8.8 350 15.1 101050 100
2008-06-03 10:57 51°16.284 2°54.469 9 1 15 101050 100
2008-06-03 10:58 51°16.235 2°54.457 10.8 344 15 101040 100
2008-06-03 10:59 51°16.185 2°54.293 12.4 340 15.1 101040 100
2008-06-03 11:00 51°16.116 2°54.063 14.3 344 15 101030 100
2008-06-03 11:01 51°16.044 2°53.819 12.7 342 15.1 101040 100
2008-06-03 11:02 51°15.971 2°53.575 16.5 340 15.1 101040 100
2008-06-03 11:03 51°15.907 2°53.324 14.6 339 15.1 101030 100
2008-06-03 11:04 51°15.831 2°53.082 15.6 344 15.1 101040 100
2008-06-03 11:05 51°15.741 2°52.852 12.5 344 15.1 101030 100
2008-06-03 11:06 51°15.65 2°52.623 15.3 343 15 101030 100
2008-06-03 11:07 51°15.561 2°52.394 12.5 344 15 101030 100
2008-06-03 11:08 51°15.47 2°52.168 15.3 344 14.9 101040 100
2008-06-03 11:09 51°15.376 2°51.946 12.2 342 14.9 101040 100
2008-06-03 11:10 51°15.283 2°51.72 15.3 344 14.9 101050 100
2008-06-03 11:11 51°15.192 2°51.492 12.6 340 14.9 101050 100
2008-06-03 11:12 51°15.104 2°51.257 12.7 343 14.9 101050 100
2008-06-03 11:13 51°15.014 2°51.022 12.8 341 15 101060 100
2008-06-03 11:14 51°14.922 2°50.787 14.5 343 15 101050 100
2008-06-03 11:15 51°14.826 2°50.554 14.9 341 15 101060 100
2008-06-03 11:16 51°14.735 2°50.313 13.7 340 15 101060 100
2008-06-03 11:17 51°14.641 2°50.076 13.9 340 15 101070 100
2008-06-03 11:18 51°14.544 2°49.842 11.6 341 15 101070 100
2008-06-03 11:19 51°14.448 2°49.606 14.1 339 15 101060 100
2008-06-03 11:20 51°14.361 2°49.361 12.9 342 15 101070 100
2008-06-03 11:21 51°14.266 2°49.125 13.9 340 15 101070 100
2008-06-03 11:22 51°14.17 2°48.884 16.4 342 15 101060 100
2008-06-03 11:23 51°14.077 2°48.644 14.6 341 15 101060 100
2008-06-03 11:24 51°13.984 2°48.403 14.3 344 15.1 101060 100
2008-06-03 11:25 51°13.891 2°48.163 13.4 341 15.1 101070 100
2008-06-03 11:26 51°13.799 2°47.921 14.6 340 15.1 101070 100
2008-06-03 11:27 51°13.713 2°47.669 14.2 340 15.1 101070 100
2008-06-03 11:28 51°13.619 2°47.425 14 340 15.1 101060 100
2008-06-03 11:29 51°13.533 2°47.172 15.8 339 15.2 101070 100
2008-06-03 11:30 51°13.442 2°46.925 15 339 15.2 101080 100
2008-06-03 11:31 51°13.346 2°46.683 15.3 338 15.2 101070 100
2008-06-03 11:32 51°13.243 2°46.449 12.9 341 15.2 101070 100
2008-06-03 11:33 51°13.137 2°46.216 14.6 341 15.1 101070 100
2008-06-03 11:34 51°13.041 2°45.971 13.2 340 15.1 101080 100
2008-06-03 11:35 51°12.944 2°45.725 12.9 339 15.2 101080 100
2008-06-03 11:36 51°12.841 2°45.491 14.8 338 15.2 101080 100
2008-06-03 11:37 51°12.748 2°45.244 12.4 338 15.2 101090 100
2008-06-03 11:38 51°12.657 2°44.996 13.7 340 15.2 101090 100
2008-06-03 11:39 51°12.563 2°44.751 14.3 336 15.2 101080 100
2008-06-03 11:40 51°12.491 2°44.484 14.7 335 15.2 101080 100
2008-06-03 11:41 51°12.422 2°44.215 14.6 335 15.2 101080 100
2008-06-03 11:42 51°12.344 2°43.961 13.6 336 15.2 101090 100
2008-06-03 11:43 51°12.251 2°43.722 12 337 15.3 101090 100
2008-06-03 11:44 51°12.175 2°43.468 15.2 330 15.2 101090 100
2008-06-03 11:45 51°12.151 2°43.185 12.6 330 15.2 101080 100
2008-06-03 11:46 51°12.112 2°42.91 11.8 334 15.2 101080 100
2008-06-03 11:47 51°12.015 2°42.682 12.7 339 15.2 101090 100
2008-06-03 11:48 51°11.885 2°42.493 10.9 338 15.2 101100 100
2008-06-03 11:49 51°11.755 2°42.303 11 341 15.2 101090 100
2008-06-03 11:50 51°11.626 2°42.107 11.5 339 15.2 101100 100
2008-06-03 11:51 51°11.503 2°41.898 13.1 339 15.2 101100 100
2008-06-03 11:52 51°11.379 2°41.693 13.9 340 15.2 101100 100
2008-06-03 11:53 51°11.25 2°41.491 11 341 15.2 101100 100
2008-06-03 11:54 51°11.111 2°41.308 12.8 340 15.2 101110 100
2008-06-03 11:55 51°10.972 2°41.122 12.4 340 15.2 101110 100
2008-06-03 11:56 51°10.836 2°40.931 13 340 15.2 101110 100
2008-06-03 11:57 51°10.699 2°40.741 10.8 342 15.2 101110 100
2008-06-03 11:58 51°10.552 2°40.568 10.9 343 15.2 101110 100
2008-06-03 11:59 51°10.41 2°40.384 12.2 339 15.2 101110 100
2008-06-03 12:00 51°10.27 2°40.201 10.5 341 15.2 101110 100
2008-06-03 12:01 51°10.186 2°40.087 8.6 340 15.2 101120 100
2008-06-03 12:02 51°10.146 2°40.055 6.7 353 15.2 101130 100
2008-06-03 12:03 51°10.107 2°40.045 7 352 15.1 101130 100
2008-06-03 12:04 51°10.083 2°40.058 6.4 1 15.1 101130 100
2008-06-03 12:05 51°10.069 2°40.093 6.8 8 15.1 101130 100
2008-06-03 12:06 51°10.061 2°40.134 6.9 8 15.1 101130 100
2008-06-03 12:07 51°10.057 2°40.176 5.5 7 15.1 101130 100
2008-06-03 12:08 51°10.055 2°40.217 5.2 3 15.1 101130 100
2008-06-03 12:09 51°10.029 2°40.208 6.4 330 15.1 101140 100
2008-06-03 12:10 51°10.068 2°40.162 6.4 245 15.2 101130 100
2008-06-03 12:11 51°10.159 2°40.248 4.3 248 15.2 101140 100
2008-06-03 12:12 51°10.317 2°40.429 5.2 28 15.3 101140 100
2008-06-03 12:13 51°10.482 2°40.68 4.9 240 15.3 101140 100
2008-06-03 12:14 51°10.633 2°40.953 3.4 244 15.3 101140 100
2008-06-03 12:15 51°10.78 2°41.235 3.3 241 15.3 101140 100
2008-06-03 12:16 51°10.926 2°41.518 3.7 27 15.4 101140 100
2008-06-03 12:17 51°11.072 2°41.8 4 238 15.4 101140 100
2008-06-03 12:18 51°11.203 2°42.097 2.8 26 15.4 101140 100
2008-06-03 12:19 51°11.325 2°42.406 2 28 15.5 101140 100
2008-06-03 12:20 51°11.414 2°42.739 0.8 22 15.5 101140 100
2008-06-03 12:21 51°11.466 2°43.092 0.5 32 15.6 101140 100
2008-06-03 12:22 51°11.526 2°43.441 1.3 259 15.7 101140 100
2008-06-03 12:23 51°11.586 2°43.788 0.8 264 15.8 101140 100
2008-06-03 12:24 51°11.641 2°44.138 0.6 20 15.8 101140 100
2008-06-03 12:25 51°11.694 2°44.488 0.7 319 15.9 101140 100
2008-06-03 12:26 51°11.74 2°44.843 1.5 340 16 101140 100
2008-06-03 12:27 51°11.783 2°45.2 0.8 318 16.1 101140 100
2008-06-03 12:28 51°11.84 2°45.552 0.7 327 16.2 101140 100
2008-06-03 12:29 51°11.895 2°45.902 0.6 11 16.3 101140 100
2008-06-03 12:30 51°11.942 2°46.256 0.4 17 16.3 101140 100
2008-06-03 12:31 51°11.993 2°46.611 0.5 343 16.4 101140 100
2008-06-03 12:32 51°12.042 2°46.969 0.9 11 16.4 101140 100
2008-06-03 12:33 51°12.088 2°47.328 0.6 5 16.3 101140 100
2008-06-03 12:34 51°12.171 2°47.669 2.6 27 16.4 101140 100
2008-06-03 12:35 51°12.283 2°47.993 2.5 253 16.5 101130 100
2008-06-03 12:36 51°12.393 2°48.321 1.7 253 16.5 101130 100
2008-06-03 12:37 51°12.495 2°48.655 1.5 250 16.5 101140 100
2008-06-03 12:38 51°12.598 2°48.985 3 241 16.5 101130 100
2008-06-03 12:39 51°12.715 2°49.302 2.8 251 16.6 101140 99
2008-06-03 12:40 51°12.827 2°49.623 2.6 249 16.6 101140 99
2008-06-03 12:41 51°12.93 2°49.95 2.3 250 16.6 101140 99
2008-06-03 12:42 51°13.037 2°50.276 2.2 247 16.6 101130 99
2008-06-03 12:43 51°13.148 2°50.606 2.1 243 16.6 101130 98
2008-06-03 12:44 51°13.255 2°50.917 2.4 254 16.6 101130 98
2008-06-03 12:45 51°13.335 2°51.145 3.1 35 16.6 101140 98
2008-06-03 12:46 51°13.397 2°51.282 4.5 41 16.5 101130 97
2008-06-03 12:47 51°13.444 2°51.395 4.4 27 16.4 101140 97
2008-06-03 12:48 51°13.476 2°51.471 5.6 38 16.3 101140 97
2008-06-03 12:49 51°13.489 2°51.514 5.9 40 16.2 101140 97
2008-06-03 12:50 51°13.503 2°51.558 6.2 29 16.2 101140 97
2008-06-03 12:51 51°13.516 2°51.603 7.2 262 16.1 101140 97
2008-06-03 12:52 51°13.529 2°51.648 5.8 267 16.1 101140 98
2008-06-03 12:53 51°13.55 2°51.699 4.8 30 16.1 101130 98
2008-06-03 12:54 51°13.625 2°51.873 2.7 254 16.1 101150 98
2008-06-03 12:55 51°13.747 2°52.17 3.8 32 16.2 101140 98
2008-06-03 12:56 51°13.879 2°52.469 3 245 16.3 101140 98
2008-06-03 12:57 51°14.01 2°52.772 2.9 238 16.4 101150 98
2008-06-03 12:58 51°14.117 2°53.054 2.5 35 16.6 101150 98
2008-06-03 12:59 51°14.16 2°53.242 2.9 34 16.5 101150 97
2008-06-03 13:00 51°14.204 2°53.411 3 41 16.4 101150 97
2008-06-03 13:01 51°14.247 2°53.582 2.1 41 16.4 101150 97
2008-06-03 13:02 51°14.299 2°53.823 0.9 41 16.5 101150 97
2008-06-03 13:03 51°14.355 2°54.137 1.3 40 16.6 101150 98
2008-06-03 13:04 51°14.408 2°54.469 0.4 236 16.8 101150 98
2008-06-03 13:05 51°14.426 2°54.798 1.8 22 16.9 101150 98
2008-06-03 13:06 51°14.353 2°55.071 5.3 18 16.8 101150 96
2008-06-03 13:07 51°14.239 2°55.281 5.3 10 16.7 101140 95